This is the latest recevied weather packets stored in our database for station/object WB0YAF-8. If no packets are shown the sender has not sent any weather packets the latest 10 day(s).
| Time | Temp. | Humidity | Pressure | Rain* | Wind** | Luminosity | Snow |
|---|---|---|---|---|---|---|---|
| 1778098074 | 1.11° C | 51% | 1018.8 hPa | 0 mm | - | - | - |
| 1778097774 | 1.11° C | 51% | 1018.8 hPa | 0 mm | - | - | - |
| 1778097476 | 1.11° C | 52% | 1018.8 hPa | 0 mm | - | - | - |
| 1778097176 | 1.11° C | 50% | 1018.8 hPa | 0 mm | - | - | - |
| 1778096876 | 1.11° C | 51% | 1018.8 hPa | 0 mm | - | - | - |
| 1778096575 | 1.11° C | 51% | 1018.8 hPa | 0 mm | - | - | - |
| 1778096276 | 1.11° C | 51% | 1018.8 hPa | 0 mm | - | - | - |
| 1778095976 | 1.11° C | 51% | 1018.8 hPa | 0 mm | - | - | - |
| 1778095676 | 1.67° C | 52% | 1018.8 hPa | 0 mm | - | - | - |
| 1778095374 | 2.22° C | 51% | 1018.8 hPa | 0 mm | - | - | - |
| 1778095074 | 1.67° C | 51% | 1018.8 hPa | 0 mm | - | - | - |
| 1778094776 | 1.67° C | 52% | 1018.8 hPa | 0 mm | - | - | - |
| 1778094475 | 1.67° C | 52% | 1018.8 hPa | 0 mm | - | - | - |
| 1778094175 | 1.67° C | 51% | 1018.8 hPa | 0 mm | - | - | - |
| 1778093875 | 1.11° C | 52% | 1018.8 hPa | 0 mm | - | - | - |
| 1778093575 | 1.11° C | 52% | 1018.8 hPa | 0 mm | - | - | - |
| 1778093276 | 1.11° C | 52% | 1018.8 hPa | 0 mm | - | - | - |
| 1778092976 | 0.56° C | 53% | 1018.8 hPa | 0 mm | - | - | - |
| 1778092675 | 0.56° C | 52% | 1018.8 hPa | 0 mm | - | - | - |
| 1778092374 | 0.56° C | 51% | 1018.8 hPa | 0 mm | - | - | - |
| 1778092074 | 0.56° C | 53% | 1018.8 hPa | 0 mm | - | - | - |
| 1778091775 | 1.11° C | 53% | 1018.8 hPa | 0 mm | - | - | - |
| 1778091475 | 1.11° C | 59% | 1018.8 hPa | 0 mm | - | - | - |
| 1778091175 | 1.11° C | 57% | 1018.8 hPa | 0 mm | - | - | - |
| 1778090876 | 1.67° C | 56% | 1018.8 hPa | 0 mm | - | - | - |
* Rain latest hour (hover to see other rain measurements)
** Current wind speed in m/s (hover to see current wind gust speed)